Location: 22
(39.7117°N, 89.5929°W)
Time: 13:56:48
(UTC-05:00)

Vanguard 3 - Pass Details

Date: 20 September 2024
Orbit: 507 x 3223 km, 33.3° (Epoch: 12 October)

Event Time Altitude Azimuth Distance (km) Brightness Sun altitude
Exits shadow 02:51:52 11° 151° (SSE) 4,905 10.9 -41.0°
Maximum altitude 02:57:44 15° 127° (SE) 5,061 11.2 -40.3°
Drops below altitude 10° 03:05:49 10° 100° (E) 5,911 11.8 -39.2°
Sets 03:14:04 0° 81° (E) 7,159 12.6 -38.0°
